Location: Devore Heights
(34.2372°N, 117.4156°W)
Time: 08:06:39
(UTC+00:00)

Vanguard 1 Rocket - Pass Details

Date: 19 September 2024
Orbit: 650 x 4218 km, 34.3° (Epoch: 09 October)

Event Time Altitude Azimuth Distance (km) Brightness Sun altitude
Rises 10:03:52 0° 239° (WSW) 4,507 - -41.6°
Reaches altitude 10° 10:06:16 10° 236° (WSW) 3,839 - -41.2°
Exits shadow 10:15:46 68° 182° (S) 2,535 9.2 -39.7°
Maximum altitude 10:16:59 71° 155° (SSE) 2,609 9.4 -39.5°
Drops below altitude 10° 10:38:04 10° 77° (ENE) 6,976 12.6 -35.9°
Sets 10:44:18 0° 76° (ENE) 8,287 13.2 -34.8°
